Regional Weather Roundup
Issued by NWS

Home | Current Version | Previous Version | Graphics & Text | Print | Product List | Glossary On
Versions: 1 2 3 4 5 6 7 8 9 10 11 12 13 14 15 16 17 18 19 20 21 22 23 24 25 26 27 28 29 30 31 32 33 34 35 36 37 38 39 40 41 42 43 44 45 46 47 48 49 50
000
ASUS43 KMKX 232300
RWRWI

WISCONSIN REGIONAL WEATHER ROUNDUP
NATIONAL WEATHER SERVICE MILWAUKEE/SULLIVAN WI
600 PM CDT TUE MAY 23 2017

NOTE: "FAIR" INDICATES FEW OR NO CLOUDS BELOW 12,000 FEET WITH NO
SIGNIFICANT WEATHER AND/OR OBSTRUCTIONS TO VISIBILITY.

WIZ001-002-006>008-014>016-023>028-240000-
NORTHWEST WISCONSIN

CITY           SKY/WX    TMP DP  RH WIND       PRES   REMARKS
SUPERIOR ARPT  NOT AVBL
ASHLAND        CLOUDY    47  44  90 NE12      29.88F
HAYWARD        PTSUNNY   57  43  59 N18       29.83S
SIREN          CLOUDY    57  44  61 NE16      29.84R
CUMBERLAND     PTSUNNY   55  43  62 N12       29.80S
RICE LAKE      CLOUDY    58  46  63 N9        29.81S
CHETEK         CLOUDY    55  48  79 CALM      29.79S
LADYSMITH      CLOUDY    56  46  69 N10       29.81S
EAU CLAIRE     NOT AVBL
MENOMONIE      CLOUDY    57  45  64 N12G17    29.78S
NEW RICHMOND   CLOUDY    58  45  60 N10       29.80S
OSCEOLA        CLOUDY    60  44  55 NE12      29.83R
$$

WIZ003>005-009-010-017-018-240000-
NORTH CENTRAL WISCONSIN

CITY           SKY/WX    TMP DP  RH WIND       PRES   REMARKS
MANITOWISH WTR CLOUDY    53  44  72 NE7       29.82S
ARBOR VITAE    CLOUDY    55  45  69 N6        29.81R
WOODRUFF       CLOUDY    55  45  69 N6        29.81R
RHINELANDER    CLOUDY    57  46  66 NE5       29.79S
EAGLE RIVER    CLOUDY    55  42  60 NE10      29.80S
LAND O LAKES   CLOUDY    54  44  69 N9        29.83S
PHILLIPS       CLOUDY    54  45  72 N10G17    29.80S
TOMAHAWK       CLOUDY    55  45  70 N5        29.79S
MEDFORD        CLOUDY    55  45  69 NE8       29.76F
MERRILL        CLOUDY    57  44  61 NE8       29.78S
$$

WIZ029-030-035-036-043>047-240000-
CENTRAL WISCONSIN

CITY           SKY/WX    TMP DP  RH WIND       PRES   REMARKS
WAUSAU         CLOUDY    56  44  64 NE9       29.75S
MOSINEE        CLOUDY    55  46  71 NE13      29.77S
MARSHFIELD     CLOUDY    57  44  62 NE13      29.74S
STEVENS POINT  CLOUDY    53  45  72 E9        29.76S
WAUPACA        CLOUDY    56  46  69 NE7       29.76S
WAUTOMA        LGT RAIN  52  49  89 E17       29.74S
WISC RAPIDS    CLOUDY    56  46  69 E14       29.75S
CAMP DOUGLAS   NOT AVBL
$$

WIZ011>013-019>022-031-037>040-048>050-240000-
NORTHEAST WISCONSIN

CITY           SKY/WX    TMP DP  RH WIND       PRES   REMARKS
ANTIGO         CLOUDY    54  45  71 NE10      29.78F
SHAWANO        CLOUDY    55  47  74 NE12      29.78F
OCONTO         CLOUDY    51  46  84 NE3       29.79S
STURGEON BAY   CLOUDY    54  45  71 NE8       29.78S
GREEN BAY      LGT RAIN  51  51 100 NE10      29.77S
MANITOWOC      HVY RAIN  48  45  87 N7        29.76S FOG
APPLETON       LGT RAIN  50  48  93 NE9G17    29.74R
CLINTONVILLE   LGT RAIN  52  46  82 NE8       29.77F
OSHKOSH        LGT RAIN  52  49  89 NE12      29.74S
$$

WIZ032>034-041-042-053>061-240000-
SOUTHWEST WISCONSIN

CITY           SKY/WX    TMP DP  RH WIND       PRES   REMARKS
LA CROSSE      LGT RAIN  58  53  84 N3        29.73R
SPARTA         RAIN      53  52  96 E8        29.73S
VIROQUA        CLOUDY    55  53  95 MISG      29.71S
BOSCOBEL       CLOUDY    62  50  64 N7        29.70S
PRAIRIE DU CHI CLOUDY    61  48  62 NW6       29.70S
PLATTEVILLE    MOSUNNY   61  52  73 CALM      29.70S
$$

WIZ056-057-062-063-064-067-068-240000-
SOUTH CENTRAL WISCONSIN

CITY           SKY/WX    TMP DP  RH WIND       PRES   REMARKS
REEDSBURG      CLOUDY    57  52  82 NW5       29.70R
BARABOO/DELLS  CLOUDY    57  52  82 E9        29.71R
LONE ROCK      NOT AVBL
MINERAL POINT  MOSUNNY   63  52  67 SW5       29.70S
MADISON        RAIN      58  51  78 SW6       29.70S
MIDDLETON      CLOUDY    59  52  77 S3        29.71S
WATERTOWN      LGT RAIN  54  54 100 SW6       29.70F
MONROE         CLOUDY    55  54  94 E6        29.70F
JANESVILLE     MOSUNNY   55  55 100 CALM      29.70F
$$

WIZ051-052-058>065-066-070>072-240000-
SOUTHEAST WISCONSIN

CITY           SKY/WX    TMP DP  RH WIND       PRES   REMARKS
MILWAUKEE      CLOUDY    59  55  87 S10       29.72R
WAUKESHA       RAIN      54  54 100 SE5       29.73S
MILWAUKEE/TIMM HVY RAIN  55  52  88 SW3       29.73S
RACINE         CLOUDY    56  52  86 S10       29.73F
KENOSHA        LGT RAIN  59  55  87 SE8       29.72S
FOND DU LAC    HVY RAIN  52  48  86 NE9       29.74S FOG
SHEBOYGAN      LGT RAIN  49  48  97 NE14      29.74F
WEST BEND      DRIZZLE   52  52 100 E10       29.73R
JUNEAU         RAIN      54  53  96 CALM      29.74R
$$

LSZ147-162-240000-
LAKE SUPERIOR

STATION/POSITION TIME  TEMP    WIND        PRES    WAVE
                       AIR SEA DIR/SP/G            HT/PER
                 (UTC) (F)     (DEG/KT/KT) (MB)    (FT/S)
W MID LAKE BUOY  2150   41 37   10/ 10/ 10 1012.5F   0
DEVILS ISLAND    2200   43      70/  6/  7 1012.8F
PORT WING        2240   42      20/ 14/ 15 1012.2R
SAXON HARBOR     2240   42      10/  3/  6 1011.9S
$$

LMZ867-665-643>646-240000-
LAKE MICHIGAN

STATION/POSITION TIME  TEMP    WIND        PRES    WAVE
                       AIR SEA DIR/SP/G            HT/PER
                 (UTC) (F)     (DEG/KT/KT) (MB)    (FT/S)
CHAMBERS ISLAND  2240   49      10/  3/  4 1008.1F
N MID LAKE BUOY  2150   44 39   10/  6/  6 1009.3F   0
NORTHPORT PIER   2240   49     360/  6/  8 1008.1F
KEWAUNEE LAKESHO 2230   49      20/  8/ 14 1007.6S
SHEBOYGAN LAKESH 2200   45      30/ 15/ 17 1007.6R
PORT WASHINGTON  2240   47      50/  7/ 10 1008.1R
ATWATER BUOY     2109   50     160/  8/ 10 1006.7F
MILWAUKEE LAKESH 2230   51     150/ 11/ 12   N/A
S MID LAKE BUOY  2150   48 45  110/  8/  8 1007.2F   0
KENOSHA   LAKESH 2200   53     170/ 10/ 13 1006.8
$$

TC  - TEMPERATURE IN CELSIUS
VSB - VISIBILITY IN STATUTE MILES
WCI - WIND CHILL INDEX
HX  - HEAT INDEX





USA.gov is the U.S. government's official web portal to all federal, state and local government web resources and services.